Location: Sousa Corners
(38.4463°N, 122.8614°W)
Time: 16:56:42
(UTC+00:00)

Daily predictions for brighter satellites

Satellite Brightness Start Highest point End
(mag) Time Altitude Azimuth Time Altitude Azimuth Time Altitude Azimuth
Okean 3 4.2 12:01:14 10° NNW 12:04:59 33° W 12:08:43 10° SSW
SL-8 R/B 3.7 12:04:53 11° WSW 12:09:32 83° NNW 12:14:21 10° NE
ADEOS II 4.1 12:08:06 10° NNW 12:10:41 14° WNW 12:13:16 10° W
Cosmos 1464 Rocket 4.5 12:05:33 10° S 12:11:49 67° E 12:18:09 10° NNE
COSMOS 2441 4.5 12:08:06 10° N 12:12:52 62° WNW 12:17:35 10° SSW
Cosmos 1356 3.4 12:12:43 10° SSW 12:16:08 67° WNW 12:19:34 10° N
Cosmos 1536 3.8 12:14:11 10° SW 12:17:47 30° WNW 12:21:25 10° NNW
Cosmos 2369 4.1 12:12:31 10° NNW 12:18:15 71° ENE 12:23:57 10° SSE
Cosmos 1975 4.1 12:17:47 10° SSE 12:21:35 42° E 12:25:22 10° NNE
CZ-4C R/B 4.0 12:19:20 10° SSW 12:22:10 25° W 12:24:58 10° NW
Meteor 1-23 Rocket 4.3 12:17:01 10° NNW 12:22:42 71° W 12:28:25 10° S
deb Kosmos-1763 4.1 12:20:22 10° SSW 12:23:56 84° ESE 12:27:32 10° NNE
Cosmos 1656 3.9 12:20:20 10° NW 12:25:32 48° WSW 12:30:43 10° S
deb Chang Zheng 4 3.5 12:22:09 10° N 12:26:24 76° WNW 12:30:39 10° SSW
